Location: Stara Lesna
(49.1528°N, 20.2911°E)
Time: 09:27:26
(UTC+02:00)

SL-16 R/B - Pass Details

Date: 13 July 2020
Orbit: 985 x 1006 km, 99.5° (Epoch: 05 August)

Event Time Altitude Azimuth Distance (km) Brightness Sun altitude
Exits shadow 01:40:36 13° 145° (SE) 2,545 4.3 -18.0°
Maximum altitude 01:46:06 61° 68° (ENE) 1,134 3.0 -17.7°
Drops below altitude 10° 01:52:16 10° 350° (N) 2,794 5.9 -17.5°
Sets 01:54:48 0° 347° (NNW) 3,749 6.6 -17.4°
